Content
SEND FEEDBACK

Daily
Averages
Monthly
Summary
United States of America

WILMINGTON, OHIO


Home > North America > United States > Ohio
Elevation: 1072 feet     Latitude: 39 26N     Longitude: 083 48W

WEATHER
 
SELECT A DAY
Number of Records: 188,743;   Date Range: 4/1/98 - 12/17/14
 
SHARE

PRINT THIS DATA

[ ← Previous Day ]
WEATHER ALMANAC - JANUARY 23, 2013
[ Next Day → ]
[ °C ]   °F
Weather ElementAverageHighLow
Temperature16.2 °F19 °F (12:54 pm)12 °F (4:54 am)
Dewpoint6 °F12.9 °F (4:54 pm)-0.9 °F (3:54 am)
Humidity65.3 %84 % (4:54 pm)47 % (10:54 am)
Barometer30.30 in30.42 in (1:54 am)30.14 in (4:02 pm)
Wind Speed6.7 mph16.1 mph (12:54 pm)
Weather ElementAverage
Visibility8.8 mi
Wind DirectionSSW (194 °)

Weather ElementTotal
Precipitation0.02 in
Heating Degree Days49.5 (Base 65)
Averaged from 25 records on January 23, 2013
WEATHER CONDITIONS BREAKOUT
WIND DIRECTION BREAKOUT
WEATHER BY HOUR - JANUARY 23, 2013
[ °C ]   °F
Local TimeTemperatureDewpointHumidityBarometerVisibilityWind DirectionWind SpeedGust SpeedPrecipitationEventsConditions
1:54 AM12.9 °F1.9 °F62 %30.42 in10.0 miWest (280°)5.8 mphOvercast
2:54 AM12.9 °F1.0 °F59 %30.42 in10.0 miWest (280°)8.1 mphOvercast
3:54 AM12.9 °F-0.9 °F54 %30.42 in10.0 miWest (280°)6.9 mphOvercast
4:54 AM12.0 °F0.0 °F59 %30.41 in10.0 miWest (260°)5.8 mphClear
5:54 AM12.0 °F1.9 °F64 %30.41 in10.0 miWNW (300°)3.5 mphMostly Cloudy
6:54 AM12.0 °F1.9 °F64 %30.42 in10.0 miNW (320°)3.5 mphOvercast
7:54 AM12.0 °F3.0 °F67 %30.42 in10.0 miSW (230°)4.6 mphOvercast
8:54 AM14.0 °F1.9 °F59 %30.41 in10.0 miSW (230°)9.2 mphOvercast
9:54 AM15.1 °F0.0 °F51 %30.42 in10.0 miWSW (250°)10.4 mphOvercast
10:54 AM17.1 °F0.0 °F47 %30.40 in10.0 miSW (220°)12.7 mphOvercast
11:54 AM18.0 °F1.0 °F48 %30.37 in10.0 miSW (220°)12.7 mphOvercast
12:54 PM19.0 °F1.9 °F47 %30.33 in10.0 miSW (220°)16.1 mphOvercast
1:54 PM19.0 °F3.0 °F50 %30.30 in10.0 miWSW (240°)11.5 mphOvercast
2:54 PM19.0 °F5.0 °F54 %30.28 in10.0 miSW (220°)13.8 mphOvercast
3:54 PM19.0 °F8.1 °F62 %30.26 in3.0 miWSW (240°)9.2 mph0.00 inSnowLight Snow
4:02 PM17.6 °F8.6 °F68 %30.14 in2.0 miSW (230°)9.2 mph0.00 inSnowLight Snow
4:35 PM17.6 °F12.2 °F79 %30.14 in3.0 miSSW (210°)8.1 mph0.01 inSnowLight Snow
4:54 PM17.1 °F12.9 °F84 %30.25 in8.0 miSSW (210°)8.1 mph0.01 inOvercast
5:54 PM18.0 °F12.0 °F78 %30.23 in10.0 miSSW (210°)3.5 mphOvercast
6:54 PM18.0 °F12.0 °F78 %30.22 in6.0 miCalm0.00 inSnowLight Snow
7:54 PM18.0 °F12.0 °F78 %30.21 in9.0 miCalm0.00 inOvercast
8:54 PM18.0 °F12.9 °F81 %30.19 in10.0 miCalmOvercast
9:54 PM18.0 °F12.9 °F81 %30.19 in10.0 miCalmOvercast
10:54 PM18.0 °F12.9 °F81 %30.17 in10.0 miSSW (200°)5.8 mphOvercast
11:54 PM19.0 °F12.9 °F77 %30.17 in10.0 miCalmOvercast
Hourly data recorded from KILN, located miles away from Wilmington, Ohio







STORIES FROM OUR PARTNERS